Olive Branch, MS

11:24 PM CDT on September 19, 2017 (GMT -0500)
Olive Branch

Weather History for KOLV - December, 2012

Change the Weather History Date:

Tuesday, December 4, 2012

  Actual Average (KMEM) Record (KMEM)
Temperature  
Mean Temperature 60 °F -  
Max Temperature 66 °F 54 °F 78 °F (1998)
Min Temperature 53 °F 35 °F 18 °F (1893)
Degree Days  
Heating Degree Days 6    
Growing Degree Days 10 (Base 50)    
Moisture  
Dew Point 60 °F    
Average Humidity 96    
Maximum Humidity 100    
Minimum Humidity 88    
Precipitation  
Precipitation 0.00 in - - ()
Sea Level Pressure  
Sea Level Pressure 30.15 in    
Wind  
Wind Speed 10 mph (SSW)    
Max Wind Speed 15 mph    
Max Gust Speed 23 mph    
Visibility 7 miles    
Events Rain    
Averages and records for this station are not official NWS values.
T = Trace of Precipitation, MM = Missing Value Source: NWS Daily Summary

Daily Weather History Graph

Daily Weather History Graph

Search for Another Location

Airport or City:

Trip Planner

Search our weather history database for the weather conditions in past years. The results will help you decide how hot, cold, wet, or windy it might be!

Date:

Astronomy

Dec. 04, 2012 Rise Set
Actual Time 6:51 AM CST 4:47 PM CST
Civil Twilight 6:23 AM CST 5:15 PM CST
Nautical Twilight 5:52 AM CST 5:46 PM CST
Astronomical Twilight 5:21 AM CST 6:17 PM CST
Moon 10:25 PM CST (12/4) 10:53 AM CST (12/4)
Length of Visible Light 10h 51m
Length of Day
9h 55m
Waning Gibbous, 69% of the Moon is Illuminated
Dec 4
Waning Gibbous
Dec 6
Last Quarter
Dec 13
New
Dec 19
First Quarter
Dec 28
Full

Hourly Weather History & Observations

Time (CST) Temp. Dew Point Humidity Pressure Visibility Wind Dir Wind Speed Gust Speed Precip Events Conditions
12:15 AM 64.4 °F 60.8 °F 88% 30.10 in 10.0 mi South 9.2 mph - 0.00 in   Partly Cloudy
12:35 AM 64.4 °F 60.8 °F 88% 30.10 in 9.0 mi South 10.4 mph - 0.00 in   Scattered Clouds
12:55 AM 64.4 °F 60.8 °F 88% 30.10 in 9.0 mi South 12.7 mph - 0.00 in   Overcast
1:15 AM 64.4 °F 60.8 °F 88% 30.09 in 10.0 mi South 13.8 mph - 0.00 in   Overcast
1:35 AM 64.4 °F 60.8 °F 88% 30.10 in 10.0 mi South 12.7 mph - N/A   Overcast
1:55 AM 64.4 °F 60.8 °F 88% 30.11 in 10.0 mi South 10.4 mph - 0.00 in   Overcast
2:15 AM 64.4 °F 60.8 °F 88% 30.11 in 10.0 mi South 13.8 mph - 0.00 in   Overcast
2:35 AM 64.4 °F 60.8 °F 88% 30.11 in 10.0 mi South 11.5 mph 16.1 mph 0.00 in   Overcast
2:55 AM 64.4 °F 60.8 °F 88% 30.11 in 8.0 mi South 13.8 mph 18.4 mph 0.00 in   Overcast
3:15 AM 64.4 °F 60.8 °F 88% 30.10 in 10.0 mi South 11.5 mph - 0.00 in   Mostly Cloudy
3:35 AM 62.6 °F 60.8 °F 94% 30.10 in 9.0 mi South 12.7 mph - 0.00 in   Scattered Clouds
3:55 AM 64.4 °F 60.8 °F 88% 30.10 in 10.0 mi South 11.5 mph - 0.00 in   Mostly Cloudy
4:15 AM 64.4 °F 62.6 °F 94% 30.11 in 10.0 mi South 12.7 mph - 0.00 in   Overcast
4:35 AM 64.4 °F 62.6 °F 94% 30.10 in 10.0 mi South 10.4 mph - N/A   Overcast
4:55 AM 64.4 °F 62.6 °F 94% 30.10 in 10.0 mi South 11.5 mph - 0.00 in   Overcast
5:15 AM 64.4 °F 64.4 °F 100% 30.11 in 10.0 mi SSW 12.7 mph - 0.00 in   Overcast
5:35 AM 64.4 °F 64.4 °F 100% 30.11 in 6.0 mi SSW 15.0 mph 20.7 mph 0.00 in   Overcast
5:55 AM 64.4 °F 64.4 °F 100% 30.11 in 9.0 mi South 15.0 mph 19.6 mph 0.00 in   Overcast
6:50 AM 64.4 °F 64.4 °F 100% 30.13 in 10.0 mi SSW 11.5 mph - N/A   Overcast
7:50 AM 64.4 °F 64.4 °F 100% 30.14 in 10.0 mi SSW 13.8 mph - N/A   Overcast
8:50 AM 66.2 °F 66.2 °F 100% 30.16 in 10.0 mi SSW 11.5 mph - N/A   Overcast
9:50 AM 66.2 °F 66.2 °F 100% 30.16 in 10.0 mi SSW 11.5 mph 23.0 mph N/A   Overcast
12:13 PM 64.4 °F 64.4 °F 100% 30.15 in 2.5 mi North 12.7 mph 16.1 mph N/A Rain Heavy Rain
12:50 PM 59.0 °F 59.0 °F 100% 30.15 in 4.0 mi NE 3.5 mph - N/A Rain Light Rain
1:50 PM 59.0 °F 59.0 °F 100% 30.17 in 5.0 mi Calm Calm - N/A Rain Light Rain
2:50 PM 57.2 °F 57.2 °F 100% 30.15 in 5.0 mi South 4.6 mph - N/A Rain Light Rain
4:50 PM 57.2 °F 57.2 °F 100% 30.12 in 5.0 mi South 5.8 mph - N/A Rain Light Rain
5:50 PM 57.2 °F 57.2 °F 100% 30.17 in 9.0 mi Calm Calm - N/A   Scattered Clouds
6:50 PM 57.2 °F 57.2 °F 100% 30.19 in 10.0 mi Calm Calm - N/A   Scattered Clouds
7:50 PM 57.2 °F 57.2 °F 100% 30.22 in 7.0 mi Calm Calm - N/A   Overcast
8:15 PM 57.2 °F 57.2 °F 100% 30.21 in 4.0 mi West 3.5 mph - 0.00 in   Overcast
8:35 PM 55.4 °F 55.4 °F 100% 30.21 in 5.0 mi NW 6.9 mph - 0.00 in   Mostly Cloudy
8:55 PM 55.4 °F 55.4 °F 100% 30.20 in 5.0 mi NNW 5.8 mph - 0.00 in   Mostly Cloudy
9:15 PM 57.2 °F 57.2 °F 100% 30.21 in 2.0 mi NNW 11.5 mph - 0.00 in   Overcast
9:35 PM 55.4 °F 55.4 °F 100% 30.20 in 1.8 mi North 8.1 mph - 0.00 in   Overcast
9:55 PM 55.4 °F 55.4 °F 100% 30.20 in 1.8 mi NNE 9.2 mph - 0.00 in   Overcast
10:15 PM 53.6 °F 53.6 °F 100% 30.21 in 1.8 mi North 8.1 mph - 0.00 in   Overcast
10:35 PM 53.6 °F 53.6 °F 100% 30.21 in 1.5 mi North 10.4 mph - 0.00 in   Overcast
10:55 PM 53.6 °F - N/A% 30.21 in 0.5 mi North 9.2 mph - 0.00 in   Overcast
11:15 PM 53.6 °F - N/A% 30.22 in 0.5 mi North 8.1 mph - 0.00 in   Overcast
11:35 PM 53.6 °F - N/A% 30.22 in 1.0 mi NNE 12.7 mph - 0.00 in   Overcast
11:55 PM 53.6 °F - N/A% 30.23 in 1.2 mi NNE 8.1 mph - 0.00 in   Overcast